Home   Weather   Bergkamen   Past weeks

Flag for Germany Past Weather in Bergkamen, North Rhine-Westphalia, Germany — Yesterday and Last 2 Weeks

Now
55 °F

Passing clouds.


Feels Like: 55 °F
Forecast: 49 / 60 °F
Wind: 5 mph from Southeast

Location: Muenster / Osnabrueck

Current Time: Oct 20, 2017 at 2:00:11 am

Latest Report: Oct 20, 2017 at 1:20 am


Visibility: N/A

Pressure: 29.80 "Hg

Humidity: 88%

Dew Point: 52 °F

Location of BergkamenLocation

Past Weather in Bergkamen — Graph

°F

Bergkamen Temperature Yesterday

Maximum temperature yesterday: 68 °F (at 3:20 pm)
Minimum temperature yesterday: 50 °F (at 12:20 am)
Average temperature yesterday: 57 °F

High & Low Weather Summary for the Past Weeks

 TemperatureHumidityPressure
High77 °F (Oct 16, 3:50 pm)100% (Oct 6, 9:50 am)30.30 "Hg (Oct 6, 9:50 am)
Low39 °F (Oct 9, 1:20 am)53% (Oct 15, 4:20 pm)29.53 "Hg (Oct 5, 11:20 am)
Average56 °F86%30.04 "Hg
* Reported Oct 5 12:20 am — Oct 20 12:50 am, Bergkamen. Weather by CustomWeather, © 2017

Note: Actual official high and low records may vary slightly from our data, if they occured in-between our weather recording intervals... More about our weather records

Advertising

Bergkamen Weather History for the Previous 24 Hours

Scroll right to see more
 ConditionsComfort  
Time TempWeatherWind HumidityBarometerVisibility
12:50 am
Fri, Oct 20
55 °FPassing clouds.5 mph88%29.80 "HgN/A
12:20 am55 °FClear.3 mph94%29.80 "Hg10 mi
11:50 pm
Thu, Oct 19
57 °FClear.5 mph88%29.80 "Hg10 mi
11:20 pm57 °FPassing clouds.5 mph88%29.83 "HgN/A
10:50 pm57 °FPassing clouds.5 mph88%29.83 "HgN/A
10:20 pm59 °FPassing clouds.5 mph82%29.83 "HgN/A
9:50 pm59 °FPassing clouds.3 mph82%29.83 "HgN/A
9:20 pm59 °FPassing clouds.3 mph82%29.83 "HgN/A
8:50 pm59 °FPassing clouds.3 mph82%29.83 "HgN/A
8:20 pm57 °FClear.2 mph88%29.83 "Hg10 mi
7:50 pm55 °FPassing clouds.3 mph94%29.83 "HgN/A
7:20 pm57 °FClear.2 mph88%29.83 "Hg10 mi
6:50 pm61 °FPassing clouds.3 mph77%29.80 "HgN/A
6:20 pm61 °FSunny.2 mph77%29.80 "Hg10 mi
5:50 pm64 °FSunny.2 mph73%29.80 "Hg10 mi
5:20 pm66 °FPassing clouds.3 mph68%29.80 "HgN/A
4:50 pm68 °FPassing clouds.5 mph60%29.80 "HgN/A
4:20 pm68 °FPassing clouds.5 mph60%29.83 "HgN/A
3:50 pm68 °FPassing clouds.6 mph64%29.83 "HgN/A
3:20 pm68 °FPassing clouds.7 mph64%29.83 "HgN/A
2:50 pm66 °FPassing clouds.7 mph64%29.83 "HgN/A
2:20 pm66 °FPassing clouds.6 mph68%29.86 "HgN/A
1:50 pm66 °FPassing clouds.5 mph68%29.86 "HgN/A
1:20 pm64 °FPassing clouds.5 mph68%29.86 "HgN/A
12:50 pm64 °FPassing clouds.6 mph73%29.89 "HgN/A
12:20 pm61 °FSunny.6 mph77%29.89 "Hg10 mi
11:50 am61 °FPassing clouds.3 mph77%29.89 "HgN/A
11:20 am59 °FPassing clouds.5 mph82%29.89 "HgN/A
10:50 am55 °FPassing clouds.5 mph88%29.89 "HgN/A
10:20 am55 °FSunny.2 mph88%29.89 "Hg10 mi
9:50 am52 °FClear.2 mph100%29.89 "Hg6 mi
9:20 am52 °FClear.3 mph94%29.89 "Hg5 mi
8:50 am50 °FFog.2 mph100%29.89 "Hg4 mi
8:20 am50 °FFog.2 mph94%29.89 "Hg4 mi
7:50 am50 °FCool.2 mph100%29.89 "Hg4 mi
7:20 am50 °FCool.2 mph94%29.89 "Hg4 mi
6:50 am50 °FFog.1 mph94%29.89 "Hg5 mi
6:20 am50 °FFog.2 mph100%29.89 "Hg4 mi
5:50 am50 °FFog.2 mph100%29.89 "Hg4 mi
5:20 am50 °FFog.3 mph100%29.89 "Hg3 mi
4:50 am50 °FFog.2 mph100%29.89 "Hg2 mi
4:20 am50 °FFog.2 mph100%29.89 "Hg2 mi
3:50 am50 °FCool.3 mph100%29.89 "Hg1 mi
3:20 am50 °FCool.1 mph100%29.92 "Hg1 mi
2:50 am50 °FCool.1 mph100%29.92 "Hg1 mi
2:20 am50 °FCool.1 mph100%29.92 "Hg1 mi
Weather by CustomWeather, © 2017

See weather overview